{"data":{"norad_id":68445,"intl_designator":"2026-067AF","name":"TRANSPORTER-16 OBJECT AF","alt_names":[],"object_type":"PAYLOAD","status":"ACTIVE","operator":null,"country":"TBD","launch_date":"2026-03-30","launch_site_code":"AFWTR","launch_vehicle":null,"mission":null,"orbit_class":"UNKNOWN","rcs_meters":null,"size_class":null,"mass_kg":null,"dimensions":null,"purposes":[],"wikipedia_slug":null,"has_3d_model":false,"image_url":null,"decayed_at":null,"tle_current":{"epoch":"2026-05-24T20:15:03.729024Z","epoch_age_seconds":78609,"freshness":"FRESH","line1":"1 68445U 26067AF  26144.84379316  .00003596  00000+0  18443-3 0  9991","line2":"2 68445  97.4508 103.5509 0005996 141.6113 218.5548 15.17165383  8394","mean_motion":15.17165383,"eccentricity":0.0005996,"inclination_deg":97.4508,"raan_deg":103.5509,"arg_perigee_deg":141.6113,"mean_anomaly_deg":218.5548,"bstar":0.00018443,"rev_number":839,"period_min":94.913844999059,"perigee_km":510.27968999077,"apogee_km":518.54523530638,"semimajor_km":6892.5494626486,"source":"CELESTRAK","updated_at":"2026-05-25T13:38:07.840586Z"}}}